Weather History for Waycross, GA

Change the Weather History Date:

Sunday, April 14, 2013

  Actual Average (KAMG) Record (KAMG)
Temperature  
Mean Temperature 62 °F 66 °F  
Max Temperature 66 °F 78 °F 91 °F (2007)
Min Temperature 57 °F 53 °F 39 °F (1950)
Degree Days  
Heating Degree Days 4 2  
Month to date heating degree days 40  
Since 1 July heating degree days 1629  
Cooling Degree Days 0 3  
Month to date cooling degree days 35  
Year to date cooling degree days 89  
Growing Degree Days 12 (Base 50)    
Moisture  
Dew Point 58 °F    
Average Humidity 87    
Maximum Humidity 100    
Minimum Humidity 72    
Precipitation  
Precipitation 0.00 in 0.10 in 2.21 in (1975)
Month to date precipitation 1.51  
Year to date precipitation 14.32  
Snow  
Snow 0.00 in 0.00 in 0.00 in ()
Month to date snowfall 0.0  
Since 1 July snowfall 0.1  
Snow Depth -    
Sea Level Pressure  
Sea Level Pressure 29.98 in    
Wind  
Wind Speed 4 mph (East)    
Max Wind Speed 17 mph    
Max Gust Speed 25 mph    
Visibility 9 miles    
Events      
T = Trace of Precipitation, MM = Missing Value Source: NWS Daily Summary

Daily Weather History Graph

Daily Weather History Graph

Search for Another Location

Airport:

Trip Planner

Search our weather history database for the weather conditions in past years. The results will help you decide how hot, cold, wet, or windy it might be!

Date:

Astronomy

Apr. 14, 2013 Rise Set
Actual Time 7:02 AM EDT 7:57 PM EDT
Civil Twilight 6:37 AM EDT 8:22 PM EDT
Nautical Twilight 6:08 AM EDT 8:51 PM EDT
Astronomical Twilight 5:38 AM EDT 9:22 PM EDT
Moon 9:49 AM EDT (4/14) 11:58 PM EDT (4/14)
Length of Visible Light 13h 44m
Length of Day
12h 55m
Waxing Crescent, 17% of the Moon is Illuminated
Apr 14
Waxing Crescent
Apr 18
First Quarter
Apr 25
Full
May 2
Last Quarter
May 9
New

Hourly Weather History & Observations

Time (EDT) Temp. Dew Point Humidity Pressure Visibility Wind Dir Wind Speed Gust Speed Precip Events Conditions
12:15 AM 62.6 °F 53.6 °F 72% 30.02 in 10.0 mi SE 4.6 mph - N/A   Clear
12:35 AM 62.6 °F 53.6 °F 72% 30.01 in 10.0 mi ESE 4.6 mph - N/A   Clear
12:55 AM 60.8 °F 53.6 °F 77% 30.02 in 10.0 mi Calm Calm - N/A   Clear
1:15 AM 62.6 °F 53.6 °F 72% 30.01 in 10.0 mi Calm Calm - N/A   Clear
1:35 AM 60.8 °F 53.6 °F 77% 30.01 in 10.0 mi Calm Calm - N/A   Clear
1:55 AM 60.8 °F 53.6 °F 77% 30.01 in 10.0 mi Calm Calm - N/A   Clear
2:15 AM 59.0 °F 53.6 °F 82% 30.00 in 10.0 mi Calm Calm - N/A   Clear
2:35 AM 60.8 °F 53.6 °F 77% 29.99 in 10.0 mi Calm Calm - N/A   Clear
2:55 AM 60.8 °F 55.4 °F 82% 29.99 in 10.0 mi SE 4.6 mph - N/A   Clear
3:15 AM 60.8 °F 55.4 °F 82% 29.98 in 10.0 mi SSE 4.6 mph - N/A   Clear
3:35 AM 60.8 °F 55.4 °F 82% 29.98 in 10.0 mi South 5.8 mph - N/A   Clear
3:55 AM 60.8 °F 55.4 °F 82% 29.98 in 10.0 mi Calm Calm - N/A   Clear
4:15 AM 60.8 °F 55.4 °F 82% 30.00 in 10.0 mi SSW 3.5 mph - N/A   Clear
4:35 AM 60.8 °F 55.4 °F 82% 29.99 in 10.0 mi Calm Calm - N/A   Clear
4:55 AM 59.0 °F 55.4 °F 88% 29.99 in 10.0 mi Calm Calm - N/A   Clear
5:15 AM 60.8 °F 55.4 °F 82% 29.99 in 10.0 mi Calm Calm - N/A   Clear
5:35 AM 57.2 °F 55.4 °F 94% 29.98 in 10.0 mi SSE 4.6 mph - N/A   Clear
5:55 AM 60.8 °F 55.4 °F 82% 29.98 in 10.0 mi ESE 3.5 mph - N/A   Clear
6:15 AM 59.0 °F 55.4 °F 88% 29.97 in 10.0 mi East 4.6 mph - N/A   Clear
6:35 AM 60.8 °F 55.4 °F 82% 29.98 in 10.0 mi Calm Calm - N/A   Clear
6:55 AM 60.8 °F 55.4 °F 82% 29.99 in 10.0 mi Calm Calm - N/A   Clear
7:15 AM 57.2 °F 55.4 °F 94% 29.99 in 10.0 mi Calm Calm - N/A   Clear
7:35 AM 57.2 °F 55.4 °F 94% 30.00 in 10.0 mi Calm Calm - N/A   Clear
7:55 AM 59.0 °F 57.2 °F 94% 30.00 in 10.0 mi Calm Calm - N/A   Clear
8:15 AM 60.8 °F 57.2 °F 88% 30.02 in 10.0 mi Calm Calm - N/A   Clear
8:35 AM 60.8 °F 57.2 °F 88% 30.02 in 10.0 mi Calm Calm - N/A   Clear
8:55 AM 60.8 °F 57.2 °F 88% 30.03 in 10.0 mi East 3.5 mph - N/A   Clear
9:15 AM 60.8 °F 57.2 °F 88% 30.03 in 10.0 mi East 4.6 mph - N/A   Clear
9:35 AM 62.6 °F 57.2 °F 82% 30.04 in 10.0 mi Calm Calm - N/A   Clear
9:55 AM 62.6 °F 57.2 °F 82% 30.02 in 10.0 mi ENE 8.1 mph - N/A   Clear
10:15 AM 62.6 °F 57.2 °F 82% 30.01 in 10.0 mi NNE 9.2 mph - N/A   Scattered Clouds
10:35 AM 64.4 °F 59.0 °F 83% 30.01 in 10.0 mi ENE 5.8 mph - N/A   Scattered Clouds
10:55 AM 66.2 °F 60.8 °F 83% 30.03 in 10.0 mi SSW 4.6 mph - N/A   Scattered Clouds
11:15 AM 66.2 °F 60.8 °F 83% 30.04 in 10.0 mi SSE 3.5 mph - N/A   Scattered Clouds
11:35 AM 66.2 °F 60.8 °F 83% 30.05 in 10.0 mi Calm Calm - N/A   Mostly Cloudy
11:55 AM 66.2 °F 60.8 °F 83% 30.03 in 10.0 mi NE 4.6 mph - N/A   Scattered Clouds
12:15 PM 66.2 °F 60.8 °F 83% 30.04 in 10.0 mi Calm Calm - N/A   Scattered Clouds
12:35 PM 66.2 °F 62.6 °F 88% 30.04 in 10.0 mi East 3.5 mph - N/A   Scattered Clouds
12:55 PM 64.4 °F 62.6 °F 94% 30.03 in 10.0 mi Calm Calm - N/A   Mostly Cloudy
1:15 PM 64.4 °F 62.6 °F 94% 30.04 in 10.0 mi SSE 3.5 mph - N/A   Mostly Cloudy
1:35 PM 64.4 °F 62.6 °F 94% 30.03 in 7.0 mi Calm Calm - N/A   Mostly Cloudy
1:55 PM 64.4 °F 62.6 °F 94% 30.02 in 10.0 mi East 4.6 mph - N/A   Mostly Cloudy
2:15 PM 64.4 °F 64.4 °F 100% 30.00 in 5.0 mi East 6.9 mph - N/A   Mostly Cloudy
2:35 PM 66.2 °F 62.6 °F 88% 29.99 in 10.0 mi East 5.8 mph - N/A   Scattered Clouds
2:55 PM 66.2 °F 64.4 °F 94% 29.98 in 10.0 mi ESE 5.8 mph - N/A   Scattered Clouds
3:15 PM 66.2 °F 64.4 °F 94% 29.97 in 10.0 mi ESE 10.4 mph - N/A   Mostly Cloudy
3:35 PM 66.2 °F 62.6 °F 88% 29.96 in 10.0 mi ESE 10.4 mph - N/A   Overcast
3:55 PM 66.2 °F 62.6 °F 88% 29.95 in 10.0 mi ESE 10.4 mph - N/A   Overcast
4:15 PM 66.2 °F 62.6 °F 88% 29.94 in 10.0 mi ESE 10.4 mph - N/A   Scattered Clouds
4:35 PM 66.2 °F 62.6 °F 88% 29.93 in 10.0 mi East 11.5 mph 16.1 mph N/A   Mostly Cloudy
4:55 PM 66.2 °F 60.8 °F 83% 29.91 in 10.0 mi East 15.0 mph 18.4 mph N/A   Overcast
5:15 PM 66.2 °F 57.2 °F 73% 29.91 in 10.0 mi ESE 12.7 mph - N/A   Mostly Cloudy
5:35 PM 64.4 °F 57.2 °F 77% 29.91 in 10.0 mi East 17.3 mph 24.2 mph N/A   Mostly Cloudy
5:55 PM 64.4 °F 55.4 °F 73% 29.90 in 10.0 mi East 15.0 mph 20.7 mph N/A   Overcast
6:15 PM 62.6 °F 57.2 °F 82% 29.93 in 4.0 mi ESE 5.8 mph - N/A   Overcast
6:35 PM 60.8 °F 57.2 °F 88% 29.94 in 10.0 mi ENE 6.9 mph - N/A   Overcast
6:55 PM 60.8 °F 57.2 °F 88% 29.93 in 7.0 mi NE 4.6 mph - N/A   Overcast
7:15 PM 60.8 °F 57.2 °F 88% 29.93 in 5.0 mi North 5.8 mph - N/A   Overcast
7:35 PM 60.8 °F 57.2 °F 88% 29.93 in 4.0 mi NNE 5.8 mph - N/A   Overcast
7:55 PM 60.8 °F 57.2 °F 88% 29.91 in 3.0 mi NE 6.9 mph - N/A   Overcast
8:15 PM 60.8 °F 59.0 °F 94% 29.90 in 5.0 mi ENE 6.9 mph - N/A   Overcast
8:35 PM 60.8 °F 59.0 °F 94% 29.90 in 5.0 mi NE 6.9 mph - N/A   Overcast
8:55 PM 59.0 °F 57.2 °F 94% 29.98 in 0.5 mi WNW 17.3 mph 25.3 mph N/A   Overcast
9:15 PM 59.0 °F 57.2 °F 94% 29.97 in 2.0 mi NNW 15.0 mph - N/A   Overcast
9:35 PM 59.0 °F 57.2 °F 94% 29.94 in 7.0 mi NNE 12.7 mph 17.3 mph N/A   Overcast
9:55 PM 59.0 °F 57.2 °F 94% 29.93 in 10.0 mi NE 8.1 mph 17.3 mph N/A   Scattered Clouds
10:15 PM 59.0 °F 59.0 °F 100% 29.94 in 10.0 mi NE 5.8 mph - N/A   Scattered Clouds
10:35 PM 59.0 °F 57.2 °F 94% 29.91 in 10.0 mi ENE 12.7 mph 17.3 mph N/A   Scattered Clouds
10:55 PM 59.0 °F 57.2 °F 94% 29.87 in 10.0 mi East 13.8 mph - N/A   Clear
11:15 PM 59.0 °F 57.2 °F 94% 29.89 in 10.0 mi East 6.9 mph - N/A   Clear
11:35 PM 59.0 °F 57.2 °F 94% 29.87 in 10.0 mi East 6.9 mph - N/A   Scattered Clouds
11:55 PM 59.0 °F 57.2 °F 94% 29.90 in 10.0 mi Calm Calm - N/A   Scattered Clouds